Location: Pcim
(49.7500°N, 19.9670°E)
Time: 20:12:53
(UTC+02:00)

MOZHAYETS 4 - Pass Details

Date: 30 April 2024
Orbit: 652 x 670 km, 98.3° (Epoch: 20 May)

Event Time Altitude Azimuth Distance (km) Brightness Sun altitude
Rises 03:51:25 0° 166° (SSE) 3,006 10.8 -12.6°
Reaches altitude 10° 03:53:38 10° 168° (SSE) 2,097 10.0 -12.3°
Maximum altitude 03:58:14 81° 255° (WSW) 686 7.7 -11.7°
Drops below altitude 10° 04:02:51 10° 344° (NNW) 2,109 10.6 -11.2°
Sets 04:05:06 0° 345° (NNW) 3,026 11.4 -10.9°
